Change the Weather History Date:

Monday, August 25, 2014

  Actual Average Record
Temperature  
Mean Temperature 63 °F 66 °F  
Max Temperature 76 °F 75 °F 89 °F (1948)
Min Temperature 50 °F 56 °F 33 °F (1987)
Degree Days  
Heating Degree Days 2 2  
Month to date heating degree days 39 27  
Since 1 June heating degree days 118 149  
Since 1 July heating degree days 63 49  
Cooling Degree Days 0 2  
Month to date cooling degree days 27 86  
Year to date cooling degree days 202 288  
Since 1 June cooling degree days 195 269  
Growing Degree Days 13 (Base 50)    
Moisture  
Dew Point 55 °F    
Average Humidity 73    
Maximum Humidity 96    
Minimum Humidity 49    
Precipitation  
Precipitation 0.00 in 0.14 in 1.75 in (1967)
Month to date precipitation 2.47 3.82  
Year to date precipitation 28.37 30.34  
Sea Level Pressure  
Sea Level Pressure 30.21 in    
Wind  
Wind Speed 2 mph (SE)    
Max Wind Speed 10 mph    
Max Gust Speed 14 mph    
Visibility 10 miles    
Events      
T = Trace of Precipitation, MM = Missing Value Source: NWS Daily Summary

Daily Weather History Graph

Daily Weather History Graph

Search for Another Location

Airport or City:

Trip Planner

Search our weather history database for the weather conditions in past years. The results will help you decide how hot, cold, wet, or windy it might be!

Date:

Astronomy

Aug. 25, 2014 Rise Set
Actual Time 6:21 AM EDT 7:45 PM EDT
Civil Twilight 5:52 AM EDT 8:14 PM EDT
Nautical Twilight 5:17 AM EDT 8:48 PM EDT
Astronomical Twilight 4:40 AM EDT 9:25 PM EDT
Moon 6:24 AM EDT (8/25) 7:33 PM EDT (8/25)
Length of Visible Light 14h 21m
Length of Day
13h 24m
New Moon, 0% of the Moon is Illuminated
Aug 25
New Moon
Sep 2
First Quarter
Sep 8
Full
Sep 15
Last Quarter
Sep 24
New

Hourly Weather History & Observations

Time (EDT) Temp. Dew Point Humidity Pressure Visibility Wind Dir Wind Speed Gust Speed Precip Events Conditions
1:53 AM 53.1 °F 51.1 °F 93% 30.20 in 10.0 mi Calm Calm - N/A   Clear
2:53 AM 53.1 °F 51.1 °F 93% 30.19 in 10.0 mi Calm Calm - N/A   Clear
3:53 AM 52.0 °F 50.0 °F 93% 30.20 in 10.0 mi NNW 3.5 mph - N/A   Clear
5:53 AM 51.1 °F 48.9 °F 92% 30.21 in 10.0 mi Calm Calm - N/A   Clear
6:53 AM 51.1 °F 48.9 °F 92% 30.22 in 10.0 mi Calm Calm - N/A   Clear
7:49 AM 57.2 °F 55.4 °F 94% 30.24 in 10.0 mi Calm Calm - N/A   Partly Cloudy
8:53 AM 68.0 °F 57.9 °F 70% 30.23 in 10.0 mi East 4.6 mph - N/A   Clear
10:53 AM 71.1 °F 54.0 °F 55% 30.25 in 10.0 mi SSE 3.5 mph - N/A   Clear
11:53 AM 73.0 °F 54.0 °F 51% 30.25 in 10.0 mi ENE 3.5 mph - N/A   Clear
12:53 PM 73.9 °F 55.0 °F 52% 30.24 in 10.0 mi ESE 4.6 mph - N/A   Clear
1:53 PM 75.9 °F 55.9 °F 50% 30.22 in 10.0 mi South 5.8 mph - N/A   Clear
2:53 PM 75.9 °F 55.9 °F 50% 30.21 in 10.0 mi SE 8.1 mph - N/A   Clear
3:53 PM 75.9 °F 55.0 °F 48% 30.21 in 10.0 mi SSE 5.8 mph - N/A   Scattered Clouds
4:53 PM 75.0 °F 55.9 °F 51% 30.20 in 10.0 mi SW 4.6 mph - N/A   Clear
5:53 PM 75.0 °F 55.9 °F 51% 30.20 in 10.0 mi Calm Calm - N/A   Clear
6:53 PM 70.0 °F 62.1 °F 76% 30.20 in 10.0 mi Calm Calm - N/A   Clear
7:53 PM 66.9 °F 62.1 °F 84% 30.20 in 10.0 mi Calm Calm - N/A   Clear
8:53 PM 63.0 °F 60.1 °F 90% 30.19 in 10.0 mi Calm Calm - N/A   Clear
11:53 PM 57.9 °F 55.9 °F 93% 30.19 in 10.0 mi Calm Calm - N/A   Clear